#timestamp,LO_Frequency,Hit,StdDev 
1507122015.2,286047001.4,N
1507122035.1,286047002.2,N
1507122036.0,286047002.2,N
1507122055.8,286046996.5,N
1507122075.6,286047000.8,N
1507122095.5,286046999.5,N
1507122115.3,286046999.6,N
1507122135.1,286046998.9,N
1507122155.8,286047001.6,N
1507122175.7,286047002.2,N
1507122195.5,286047010.3,N
1507122215.3,286047006.9,N
1507122235.2,286047006.2,N
1507122255.0,286047004.8,N
1507122255.9,286047004.8,N
1507122275.7,286047004.8,N
1507122295.6,286047008.1,N
1507122315.4,286047010.2,N
1507122335.2,286047008.9,N
1507122355.1,286047007.7,N
1507122356.0,286047007.7,N
1507122375.8,286047009.9,N
1507122395.6,286047008.1,N
1507122415.5,286047006.5,N
1507122435.3,286047005.2,N
1507122455.1,286047010.1,N
1507122475.9,286047004.9,N
1507122495.7,286047001.7,N
1507122515.5,286047004.2,N
1507122535.4,286047002.4,N
1507122555.2,286047001.7,N
1507122575.0,286047001.8,N
1507122575.9,286047001.8,N
1507122595.7,286047004.0,N
1507122615.6,286047003.5,N
1507122635.4,286047005.7,N
1507122655.3,286047005.5,N
1507122675.1,286047004.2,N
1507122676.0,286047004.2,N
1507122695.8,286047002.1,N
1507122715.6,286047003.8,N
1507122735.5,286047002.2,N
1507122755.3,286047004.6,N
1507122775.1,286047005.8,N
1507122795.9,286047005.9,N
1507122815.7,286047008.8,Y
1507122835.5,286046999.2,P
1507122855.4,286046998.0,N
1507122875.2,286047001.1,N
1507122895.0,286046997.8,N
1507122895.9,286046997.8,N
1507122915.8,286046997.9,N
1507122935.6,286046998.8,N
1507122955.4,286046997.1,N
1507122975.3,286046999.6,N
1507122995.1,286046995.0,N
1507122996.0,286046995.0,N
1507123015.8,286047001.4,N
1507123035.7,286047001.9,N
1507123055.5,286046998.4,N
1507123075.3,286046999.9,N
1507123095.2,286046998.1,N
1507123115.9,286047002.2,N
1507123135.7,286047000.8,N
1507123155.5,286046997.0,N
1507123175.4,286046997.1,N
1507123195.2,286046994.3,N
1507123215.0,286046995.9,N
1507123215.9,286046995.9,N
1507123235.8,286046996.6,N
1507123255.6,286046997.2,N
1507123275.4,286046999.4,N
1507123295.3,286047002.6,N
1507123315.1,286047002.6,N
1507123316.0,286047002.6,N
1507123335.8,286047001.9,N
1507123355.7,286046999.9,N
1507123375.5,286046996.6,N
1507123395.3,286046995.8,N
1507123415.2,286047002.6,N
1507123435.9,286047000.5,N
1507123455.7,286047000.3,N
1507123475.5,286047003.6,N
1507123495.4,286047001.4,N
1507123515.2,286046999.3,N
1507123535.0,286046997.0,N
1507123535.9,286046997.0,N
1507123555.8,286046998.4,N
1507123575.6,286047000.9,N
1507123595.4,286047001.6,N
1507123615.3,286047000.5,N
1507123635.1,286047000.7,N
1507123655.8,286047000.6,N
1507123675.7,286046999.0,N
1507123695.5,286046999.2,N
1507123715.3,286046997.0,N
1507123735.2,286046995.3,N
1507123755.9,286047002.4,N
1507123775.7,286047001.4,N
1507123795.6,286047003.1,N
1507123815.4,286047002.4,N
1507123835.2,286047000.4,N
1507123855.1,286047002.3,N
1507123856.0,286047002.3,N
1507123875.8,286047004.1,N
1507123895.6,286047003.8,N
1507123915.4,286047002.5,N
1507123935.3,286047001.9,N
1507123955.1,286047002.0,N
1507123975.8,286047006.0,N
1507123995.7,286047005.4,N
1507124015.5,286047001.0,N
1507124035.3,286047000.7,N
1507124055.2,286047002.6,N
1507124075.9,286047000.7,N
1507124095.7,286046998.4,N
1507124115.6,286046993.9,N
1507124135.4,286046996.5,N
1507124155.2,286047001.6,N
1507124175.1,286047003.4,N
1507124176.0,286047003.4,N
1507124195.8,286047001.5,N
1507124215.6,286047001.7,N
1507124235.5,286047004.2,N
1507124255.3,286047003.1,N
1507124275.1,286047003.5,N
1507124295.9,286047004.2,N
1507124315.7,286047003.2,N
1507124335.5,286047006.0,N
1507124355.4,286047004.9,N
1507124375.2,286047005.6,N
1507124395.0,286047007.1,N
1507124395.9,286047007.1,N
1507124415.8,286047007.4,N
1507124435.6,286047010.8,Y
1507124455.4,286047005.1,P
1507124475.3,286047006.5,P
1507124495.1,286047006.3,P
1507124496.0,286047006.3,Y
1507124515.8,286046999.8,P
1507124535.7,286047000.3,N
1507124555.5,286047000.6,N
1507124575.3,286047001.6,N
1507124595.2,286047005.9,Y
1507124615.9,286047002.3,P
1507124635.7,286047006.7,P
1507124655.6,286047004.2,N
1507124675.4,286047003.7,N
1507124695.2,286047005.9,Y
1507124715.1,286046998.1,P
1507124716.0,286046998.1,N
1507124735.8,286047002.4,N
1507124755.6,286047000.7,N
1507124775.5,286047003.3,N
1507124795.3,286047007.0,Y
1507124815.1,286047004.7,P
1507124835.9,286046998.6,N
1507124855.7,286047000.4,N
1507124875.5,286046999.7,N
1507124895.3,286047000.2,N
1507124915.2,286047000.7,N
1507124935.0,286046996.8,N
1507124935.9,286046996.8,N
1507124955.7,286046995.4,N
1507124975.6,286046998.3,N
1507124995.4,286046999.9,N
1507125015.2,286047001.8,N
1507125035.1,286046998.5,N
1507125036.0,286046998.5,N
1507125055.8,286046996.5,N
1507125075.6,286046999.2,N
1507125095.5,286046999.1,N
1507125115.3,286046996.9,N
1507125135.1,286047000.1,N
1507125155.9,286047000.9,N
1507125175.7,286046994.9,N
1507125195.5,286046999.0,N
1507125215.3,286046999.3,N
1507125235.2,286046998.6,N
1507125255.0,286046998.3,N
1507125255.9,286046998.3,N
1507125275.7,286046996.6,N
1507125295.6,286046995.9,N
1507125315.4,286046997.7,N
1507125335.2,286046997.5,N
1507125355.1,286046997.8,N
1507125356.0,286046997.8,N
1507125375.8,286046995.4,N
1507125395.6,286046996.0,N
1507125415.5,286046995.3,N
1507125435.3,286046995.0,N
1507125455.1,286046997.3,N
1507125475.9,286046995.4,N
1507125495.7,286046996.3,N
1507125515.5,286046997.9,N
1507125535.4,286046995.4,N
1507125555.2,286046997.4,N
1507125575.0,286046999.1,N
1507125575.9,286046999.1,N
1507125595.8,286046995.0,Y
